Weather History for CWFD - May, 2013

Change the Weather History Date:

Friday, May 17, 2013

  Actual Average Record
Temperature  
Mean Temperature 10 °F -  
Max Temperature 16 °F - - ()
Min Temperature 3 °F - - ()
Degree Days  
Heating Degree Days 56    
Moisture  
Dew Point -    
Average Humidity    
Maximum Humidity    
Minimum Humidity    
Precipitation  
Precipitation 0.00 in - - ()
Sea Level Pressure  
Sea Level Pressure 30.10 in    
Wind  
Wind Speed 12 mph ()    
Max Wind Speed 24 mph    
Max Gust Speed 29 mph    
Visibility 9.0 miles    
Events      
T = Trace of Precipitation, MM = Missing Value Source: Averaged Metar Reports

Daily Weather History Graph

Daily Weather History Graph

Search for Another Location

Airport or City:

Trip Planner

Search our weather history database for the weather conditions in past years. The results will help you decide how hot, cold, wet, or windy it might be!

Date:

Astronomy

May. 17, 2013 Rise Set
Actual Time 3:07 AM ADT 11:00 PM ADT
Civil Twilight 1:34 AM ADT Sun does not set
Nautical Twilight Sun does not set Sun does not set
Astronomical Twilight Sun does not set Sun does not set
Moon 11:12 AM ADT (5/17) 2:17 AM ADT (5/17)
Length of Visible Light 24h 00m
Length of Day
19h 52m
Waxing Crescent, 44% of the Moon is Illuminated
May 17
Waxing Crescent
May 18
First Quarter
May 25
Full
May 31
Last Quarter
Jun 8
New

Hourly Weather History & Observations

Time (ADT) Temp. Windchill Dew Point Humidity Pressure Visibility Wind Dir Wind Speed Gust Speed Precip Events Conditions
12:00 AM 3 °F - - % 30.06 in 9 mi NNW 24.2 mph - -  
12:00 AM 3.2 °F -19.0 °F - N/A% 30.06 in 9.0 mi NNW 23.0 mph 28.8 mph N/A   Unknown
1:00 AM 5.0 °F -15.7 °F - N/A% 30.05 in 9.0 mi NNW 20.7 mph - N/A   Unknown
2:00 AM 5.0 °F -8.1 °F - N/A% 30.06 in 9.0 mi North 8.1 mph - N/A   Unknown
3:00 AM 5 °F - - % 30.07 in 9 mi NNW 19.6 mph - -  
3:00 AM 5.0 °F -13.0 °F - N/A% 30.07 in 9.0 mi North 15.0 mph 25.3 mph N/A   Unknown
4:00 AM 6.8 °F -14.3 °F - N/A% 30.06 in 9.0 mi NNW 23.0 mph - N/A   Unknown
5:00 AM 6.8 °F -10.7 °F - N/A% 30.07 in 9.0 mi North 15.0 mph - N/A   Unknown
6:00 AM 6 °F - - % 30.08 in 9 mi NW 10.4 mph - -  
6:00 AM 6.8 °F -8.6 °F - N/A% 30.08 in 9.0 mi WNW 11.5 mph - N/A   Unknown
8:00 AM 6.8 °F -4.8 °F - N/A% 30.09 in 9.0 mi NW 6.9 mph - N/A   Unknown
9:00 AM 9 °F - - % 30.09 in 9 mi West 6.9 mph - -  
9:00 AM 8.6 °F -2.6 °F - N/A% 30.09 in 9.0 mi West 6.9 mph - N/A   Unknown
10:00 AM 10.4 °F -1.5 °F - N/A% 30.10 in 9.0 mi WNW 8.1 mph - N/A   Unknown
11:00 AM 10.4 °F -2.4 °F - N/A% 30.10 in 9.0 mi WNW 9.2 mph - N/A   Unknown
12:00 PM 11 °F - - % 30.10 in 9 mi NW 11.5 mph - -  
12:00 PM 12.2 °F -1.0 °F - N/A% 30.10 in 9.0 mi WNW 10.4 mph - N/A   Unknown
1:00 PM 12.2 °F -1.0 °F - N/A% 30.10 in 9.0 mi NW 10.4 mph - N/A   Unknown
2:00 PM 14.0 °F 1.2 °F - N/A% 30.10 in 9.0 mi NW 10.4 mph - N/A   Unknown
3:00 PM 14.0 °F 1.2 °F - N/A% 30.10 in 9.0 mi NW 10.4 mph - N/A   Unknown
4:00 PM 14.0 °F 1.2 °F - N/A% 30.11 in 9.0 mi NW 10.4 mph - N/A   Unknown
5:00 PM 15.8 °F 2.1 °F - N/A% 30.12 in 9.0 mi WNW 12.7 mph - N/A   Unknown
6:00 PM 15 °F - - % 30.13 in 9 mi NW 10.4 mph - -  
6:00 PM 15.8 °F 3.4 °F - N/A% 30.13 in 9.0 mi NW 10.4 mph - N/A   Unknown
7:00 PM 15.8 °F 5.1 °F - N/A% 30.14 in 9.0 mi WNW 8.1 mph - N/A   Unknown
8:00 PM 15.8 °F 7.2 °F - N/A% 30.14 in 9.0 mi NW 5.8 mph - N/A   Unknown
9:00 PM 16 °F - - % 30.15 in 9 mi WNW 2.3 mph - -  
9:00 PM 15.8 °F 10.2 °F - N/A% 30.15 in 9.0 mi WNW 3.5 mph - N/A   Unknown
10:00 PM 15.8 °F 6.1 °F - N/A% 30.15 in 9.0 mi NW 6.9 mph - N/A   Unknown
11:00 PM 15.8 °F - - N/A% 30.15 in 9.0 mi Calm Calm - N/A   Unknown